Saint Bonnet de Bellac- Haute Vienne - France
Donnes mto: samedi, 05/05/2012
Date Horaire Temp. E. Hum. E. P.atmo. Pluie Vent Direction Direction Ensoleilleme Solaire P. de rose Temp au vent Rafales
05/05/2012 00:00 10,8 C 85 % 1004,2 hPa 0,0 mm 0,0 km/h (0 Bft) S 180 0 min 0 W/m 8,4 C 10,8 C 0,0 km/h (0 Bft)
05/05/2012 00:10 10,5 C 85 % 1004,5 hPa 0,0 mm 0,0 km/h (0 Bft) S 180 0 min 0 W/m 8,1 C 10,5 C 0,0 km/h (0 Bft)
05/05/2012 00:20 10,3 C 85 % 1004,5 hPa 0,0 mm 0,0 km/h (0 Bft) SE 135 0 min 0 W/m 7,9 C 10,3 C 0,0 km/h (0 Bft)
05/05/2012 00:30 10,0 C 85 % 1004,5 hPa 0,0 mm 0,0 km/h (0 Bft) SE 135 0 min 0 W/m 7,6 C 10,0 C 0,0 km/h (0 Bft)
05/05/2012 00:40 9,8 C 86 % 1004,5 hPa 0,0 mm 0,0 km/h (0 Bft) SE 135 0 min 0 W/m 7,6 C 9,8 C 0,0 km/h (0 Bft)
05/05/2012 00:50 9,6 C 86 % 1004,6 hPa 0,0 mm 0,0 km/h (0 Bft) SE 135 0 min 0 W/m 7,4 C 9,6 C 0,0 km/h (0 Bft)
05/05/2012 01:00 9,4 C 86 % 1004,5 hPa 0,0 mm 0,0 km/h (0 Bft) SE 135 0 min 0 W/m 7,2 C 9,4 C 0,0 km/h (0 Bft)
05/05/2012 01:10 9,2 C 87 % 1004,6 hPa 0,0 mm 0,0 km/h (0 Bft) SE 135 0 min 0 W/m 7,2 C 9,2 C 0,0 km/h (0 Bft)
05/05/2012 01:20 9,1 C 87 % 1004,5 hPa 0,0 mm 0,4 km/h (0 Bft) S-SO 202 0 min 0 W/m 7,1 C 9,1 C 6,5 km/h (2 Bft)
05/05/2012 01:30 9,1 C 89 % 1004,4 hPa 0,0 mm 0,0 km/h (0 Bft) S-SO 202 0 min 0 W/m 7,4 C 9,1 C 0,0 km/h (0 Bft)
05/05/2012 01:40 9,2 C 89 % 1004,3 hPa 0,0 mm 0,4 km/h (0 Bft) S-SO 202 0 min 0 W/m 7,5 C 9,2 C 0,4 km/h (0 Bft)
05/05/2012 01:50 9,3 C 90 % 1004,2 hPa 0,0 mm 1,8 km/h (1 Bft) S-SO 202 0 min 0 W/m 7,7 C 9,3 C 4,3 km/h (1 Bft)
05/05/2012 02:00 9,4 C 91 % 1004,2 hPa 0,0 mm 2,5 km/h (1 Bft) SO 225 0 min 0 W/m 8,0 C 9,4 C 4,3 km/h (1 Bft)
05/05/2012 02:10 9,5 C 91 % 1004,1 hPa 0,0 mm 3,2 km/h (1 Bft) S-SO 202 0 min 0 W/m 8,1 C 9,5 C 9,4 km/h (2 Bft)
05/05/2012 02:20 9,6 C 91 % 1004,1 hPa 0,0 mm 5,4 km/h (2 Bft) S-SO 202 0 min 0 W/m 8,2 C 9,2 C 10,1 km/h (2 Bft)
05/05/2012 02:30 9,7 C 91 % 1004,1 hPa 0,0 mm 4,7 km/h (1 Bft) SO 225 0 min 0 W/m 8,3 C 9,5 C 9,7 km/h (2 Bft)
05/05/2012 02:40 9,7 C 91 % 1004,0 hPa 0,0 mm 5,0 km/h (1 Bft) SO 225 0 min 0 W/m 8,3 C 9,4 C 10,1 km/h (2 Bft)
05/05/2012 02:50 9,6 C 91 % 1004,0 hPa 0,0 mm 3,2 km/h (1 Bft) S-SO 202 0 min 0 W/m 8,2 C 9,6 C 3,2 km/h (1 Bft)
05/05/2012 03:02 9,6 C 91 % 1003,9 hPa 0,0 mm 5,0 km/h (1 Bft) S 180 0 min 0 W/m 8,2 C 9,3 C 6,5 km/h (2 Bft)
05/05/2012 03:10 9,6 C 91 % 1003,9 hPa 0,0 mm 4,7 km/h (1 Bft) SO 225 0 min 0 W/m 8,2 C 9,4 C 8,3 km/h (2 Bft)
05/05/2012 03:20 9,5 C 91 % 1004,0 hPa 0,0 mm 4,3 km/h (1 Bft) SO 225 0 min 0 W/m 8,1 C 9,5 C 4,3 km/h (1 Bft)
05/05/2012 03:30 9,4 C 90 % 1004,0 hPa 0,0 mm 4,0 km/h (1 Bft) S-SE 157 0 min 0 W/m 7,8 C 9,4 C 8,6 km/h (2 Bft)
05/05/2012 03:40 9,4 C 90 % 1004,0 hPa 0,0 mm 4,0 km/h (1 Bft) SO 225 0 min 0 W/m 7,8 C 9,4 C 4,0 km/h (1 Bft)
05/05/2012 03:50 9,3 C 90 % 1004,0 hPa 0,0 mm 2,9 km/h (1 Bft) SO 225 0 min 0 W/m 7,7 C 9,3 C 4,3 km/h (1 Bft)
05/05/2012 04:00 9,2 C 90 % 1004,1 hPa 0,0 mm 1,1 km/h (1 Bft) S-SE 157 0 min 0 W/m 7,6 C 9,2 C 4,3 km/h (1 Bft)
05/05/2012 04:10 9,1 C 90 % 1004,0 hPa 0,0 mm 1,8 km/h (1 Bft) S-SE 157 0 min 0 W/m 7,5 C 9,1 C 3,2 km/h (1 Bft)
05/05/2012 04:20 8,8 C 89 % 1004,1 hPa 0,0 mm 0,7 km/h (0 Bft) E-SE 112 0 min 0 W/m 7,1 C 8,8 C 4,0 km/h (1 Bft)
05/05/2012 04:30 8,6 C 89 % 1004,0 hPa 0,0 mm 1,4 km/h (1 Bft) E-SE 112 0 min 0 W/m 6,9 C 8,6 C 3,2 km/h (1 Bft)
05/05/2012 04:40 8,4 C 90 % 1004,2 hPa 0,0 mm 2,5 km/h (1 Bft) E-SE 112 0 min 0 W/m 6,9 C 8,4 C 3,6 km/h (1 Bft)
05/05/2012 04:50 8,3 C 90 % 1004,2 hPa 0,0 mm 0,0 km/h (0 Bft) S-SE 157 0 min 0 W/m 6,8 C 8,3 C 0,0 km/h (0 Bft)
05/05/2012 05:00 8,2 C 90 % 1004,2 hPa 0,0 mm 0,0 km/h (0 Bft) SE 135 0 min 0 W/m 6,7 C 8,2 C 0,0 km/h (0 Bft)
05/05/2012 05:10 8,0 C 90 % 1004,2 hPa 0,0 mm 1,1 km/h (1 Bft) E-SE 112 0 min 0 W/m 6,5 C 8,0 C 3,6 km/h (1 Bft)
05/05/2012 05:20 7,9 C 90 % 1004,0 hPa 0,0 mm 0,0 km/h (0 Bft) E-SE 112 0 min 0 W/m 6,4 C 7,9 C 0,0 km/h (0 Bft)
05/05/2012 05:30 7,7 C 90 % 1004,0 hPa 0,0 mm 0,0 km/h (0 Bft) E-SE 112 0 min 0 W/m 6,2 C 7,7 C 0,0 km/h (0 Bft)
05/05/2012 05:40 7,6 C 90 % 1003,9 hPa 0,0 mm 0,7 km/h (0 Bft) S-SE 157 0 min 0 W/m 6,1 C 7,6 C 3,6 km/h (1 Bft)
05/05/2012 05:50 7,6 C 90 % 1004,0 hPa 0,0 mm 0,4 km/h (0 Bft) SE 135 0 min 0 W/m 6,1 C 7,6 C 0,4 km/h (0 Bft)
05/05/2012 06:00 7,7 C 91 % 1004,0 hPa 0,0 mm 0,4 km/h (0 Bft) S 180 0 min 0 W/m 6,3 C 7,7 C 0,4 km/h (0 Bft)
05/05/2012 06:10 7,8 C 91 % 1003,9 hPa 0,0 mm 0,4 km/h (0 Bft) S 180 0 min 0 W/m 6,4 C 7,8 C 3,2 km/h (1 Bft)
05/05/2012 06:20 7,8 C 91 % 1003,9 hPa 0,1 mm 0,0 km/h (0 Bft) SE 135 0 min 0 W/m 6,4 C 7,8 C 0,0 km/h (0 Bft)
05/05/2012 06:30 7,8 C 91 % 1004,0 hPa 0,0 mm 0,7 km/h (0 Bft) SE 135 0 min 0 W/m 6,4 C 7,8 C 3,6 km/h (1 Bft)
05/05/2012 06:40 7,8 C 91 % 1004,0 hPa 0,0 mm 0,0 km/h (0 Bft) E-SE 112 0 min 0 W/m 6,4 C 7,8 C 0,0 km/h (0 Bft)
05/05/2012 06:50 7,7 C 91 % 1004,0 hPa 0,0 mm 1,8 km/h (1 Bft) E-SE 112 2 min 0 W/m 6,3 C 7,7 C 3,6 km/h (1 Bft)
05/05/2012 07:00 7,8 C 91 % 1004,2 hPa 0,0 mm 0,7 km/h (0 Bft) SE 135 2 min 0 W/m 6,4 C 7,8 C 4,3 km/h (1 Bft)
05/05/2012 07:10 7,9 C 91 % 1004,1 hPa 0,0 mm 0,7 km/h (0 Bft) N 360 2 min 0 W/m 6,5 C 7,9 C 0,7 km/h (0 Bft)
05/05/2012 07:20 8,2 C 91 % 1004,1 hPa 0,0 mm 0,0 km/h (0 Bft) SE 135 2 min 0 W/m 6,8 C 8,2 C 0,0 km/h (0 Bft)
05/05/2012 07:30 8,4 C 91 % 1004,1 hPa 0,0 mm 0,0 km/h (0 Bft) SE 135 2 min 0 W/m 7,0 C 8,4 C 0,0 km/h (0 Bft)
05/05/2012 07:40 8,8 C 91 % 1004,1 hPa 0,0 mm 0,4 km/h (0 Bft) S-SE 157 2 min 0 W/m 7,4 C 8,8 C 3,6 km/h (1 Bft)
05/05/2012 07:50 9,1 C 91 % 1004,2 hPa 0,0 mm 0,0 km/h (0 Bft) E 90 2 min 0 W/m 7,7 C 9,1 C 0,0 km/h (0 Bft)
05/05/2012 08:00 9,4 C 91 % 1004,2 hPa 0,0 mm 0,0 km/h (0 Bft) SE 135 2 min 0 W/m 8,0 C 9,4 C 3,2 km/h (1 Bft)
05/05/2012 08:10 9,5 C 91 % 1004,2 hPa 0,0 mm 0,0 km/h (0 Bft) E-SE 112 2 min 0 W/m 8,1 C 9,5 C 0,0 km/h (0 Bft)
05/05/2012 08:20 9,8 C 92 % 1004,3 hPa 0,0 mm 1,1 km/h (1 Bft) S-SE 157 2 min 0 W/m 8,6 C 9,8 C 3,2 km/h (1 Bft)
05/05/2012 08:30 10,1 C 92 % 1004,2 hPa 0,0 mm 2,2 km/h (1 Bft) S-SO 202 2 min 0 W/m 8,9 C 10,1 C 4,3 km/h (1 Bft)
05/05/2012 08:40 10,4 C 92 % 1004,2 hPa 0,0 mm 1,8 km/h (1 Bft) S-SE 157 2 min 0 W/m 9,2 C 10,4 C 6,8 km/h (2 Bft)
05/05/2012 08:50 10,7 C 91 % 1004,2 hPa 0,0 mm 2,5 km/h (1 Bft) S 180 2 min 0 W/m 9,3 C 10,7 C 4,3 km/h (1 Bft)
05/05/2012 09:00 11,4 C 90 % 1004,3 hPa 0,0 mm 7,9 km/h (2 Bft) S-SO 202 2 min 0 W/m 9,8 C 11,4 C 12,6 km/h (3 Bft)
05/05/2012 09:10 12,2 C 87 % 1004,2 hPa 0,0 mm 9,4 km/h (2 Bft) SO 225 2 min 0 W/m 10,1 C 12,2 C 14,8 km/h (3 Bft)
05/05/2012 09:20 12,8 C 83 % 1004,2 hPa 0,0 mm 6,1 km/h (2 Bft) O-SO 247 2 min 0 W/m 10,0 C 12,8 C 11,9 km/h (2 Bft)
05/05/2012 09:30 13,2 C 83 % 1004,2 hPa 0,0 mm 6,8 km/h (2 Bft) S-SE 157 2 min 0 W/m 10,4 C 13,2 C 9,4 km/h (2 Bft)
05/05/2012 09:40 13,4 C 81 % 1004,1 hPa 0,0 mm 5,0 km/h (1 Bft) S-SO 202 2 min 0 W/m 10,2 C 13,4 C 5,0 km/h (1 Bft)
05/05/2012 09:50 13,3 C 80 % 1004,2 hPa 0,0 mm 8,3 km/h (2 Bft) S-SO 202 2 min 0 W/m 9,9 C 13,3 C 13,0 km/h (3 Bft)
05/05/2012 10:00 13,3 C 79 % 1004,2 hPa 0,0 mm 7,2 km/h (2 Bft) S 180 2 min 0 W/m 9,7 C 13,3 C 10,1 km/h (2 Bft)
05/05/2012 10:10 13,1 C 79 % 1004,3 hPa 0,0 mm 9,4 km/h (2 Bft) S 180 2 min 0 W/m 9,5 C 13,1 C 9,4 km/h (2 Bft)
05/05/2012 10:20 13,3 C 81 % 1004,4 hPa 0,0 mm 6,1 km/h (2 Bft) S-SO 202 2 min 0 W/m 10,1 C 13,3 C 8,3 km/h (2 Bft)
05/05/2012 10:30 13,9 C 80 % 1004,3 hPa 0,0 mm 9,4 km/h (2 Bft) S-SO 202 2 min 0 W/m 10,5 C 13,9 C 13,3 km/h (3 Bft)
05/05/2012 10:40 14,8 C 79 % 1004,4 hPa 0,0 mm 7,9 km/h (2 Bft) S 180 2 min 0 W/m 11,2 C 14,8 C 8,3 km/h (2 Bft)
05/05/2012 10:50 15,4 C 76 % 1004,5 hPa 0,0 mm 5,4 km/h (2 Bft) SO 225 2 min 0 W/m 11,2 C 15,4 C 7,9 km/h (2 Bft)
05/05/2012 11:00 15,8 C 74 % 1004,6 hPa 0,0 mm 6,5 km/h (2 Bft) S-SO 202 2 min 0 W/m 11,2 C 15,8 C 10,8 km/h (2 Bft)
05/05/2012 11:10 16,1 C 71 % 1004,6 hPa 0,0 mm 7,9 km/h (2 Bft) SO 225 2 min 0 W/m 10,8 C 16,1 C 9,4 km/h (2 Bft)
05/05/2012 11:20 16,3 C 72 % 1004,6 hPa 0,0 mm 4,3 km/h (1 Bft) S-SO 202 2 min 0 W/m 11,2 C 16,3 C 9,7 km/h (2 Bft)
05/05/2012 11:30 16,8 C 70 % 1004,7 hPa 0,0 mm 8,3 km/h (2 Bft) S 180 2 min 0 W/m 11,3 C 16,8 C 11,5 km/h (2 Bft)
05/05/2012 11:40 16,9 C 70 % 1004,6 hPa 0,0 mm 3,6 km/h (1 Bft) S-SO 202 2 min 0 W/m 11,4 C 16,9 C 10,8 km/h (2 Bft)
05/05/2012 11:50 16,8 C 70 % 1004,6 hPa 0,0 mm 1,8 km/h (1 Bft) O 270 2 min 0 W/m 11,3 C 16,8 C 8,6 km/h (2 Bft)
05/05/2012 12:00 16,6 C 72 % 1004,5 hPa 0,0 mm 2,9 km/h (1 Bft) O 270 2 min 0 W/m 11,5 C 16,6 C 7,2 km/h (2 Bft)
05/05/2012 12:10 16,8 C 71 % 1004,4 hPa 0,0 mm 1,4 km/h (1 Bft) S-SO 202 2 min 0 W/m 11,5 C 16,8 C 4,3 km/h (1 Bft)
05/05/2012 12:20 16,4 C 66 % 1004,4 hPa 0,0 mm 5,4 km/h (2 Bft) O-SO 247 2 min 0 W/m 10,0 C 16,4 C 9,0 km/h (2 Bft)
05/05/2012 12:30 15,8 C 70 % 1004,4 hPa 0,0 mm 5,8 km/h (2 Bft) SO 225 2 min 0 W/m 10,3 C 15,8 C 8,6 km/h (2 Bft)
05/05/2012 12:40 15,5 C 71 % 1004,3 hPa 0,0 mm 2,9 km/h (1 Bft) O 270 2 min 0 W/m 10,3 C 15,5 C 4,0 km/h (1 Bft)
05/05/2012 12:50 15,3 C 74 % 1004,3 hPa 0,0 mm 2,5 km/h (1 Bft) NO 315 2 min 0 W/m 10,7 C 15,3 C 12,6 km/h (3 Bft)
05/05/2012 13:00 14,8 C 74 % 1004,4 hPa 0,1 mm 0,7 km/h (0 Bft) O-NO 292 2 min 0 W/m 10,2 C 14,8 C 4,3 km/h (1 Bft)
05/05/2012 13:10 14,8 C 74 % 1004,3 hPa 0,0 mm 0,7 km/h (0 Bft) O-NO 292 2 min 0 W/m 10,2 C 14,8 C 4,3 km/h (1 Bft)
05/05/2012 13:20 14,4 C 77 % 1004,1 hPa 0,0 mm 1,4 km/h (1 Bft) O-SO 247 2 min 0 W/m 10,4 C 14,4 C 4,0 km/h (1 Bft)
05/05/2012 13:30 14,9 C 78 % 1004,1 hPa 0,0 mm 0,0 km/h (0 Bft) O 270 2 min 0 W/m 11,1 C 14,9 C 0,0 km/h (0 Bft)
05/05/2012 13:40 15,5 C 77 % 1004,3 hPa 0,0 mm 4,3 km/h (1 Bft) SO 225 2 min 0 W/m 11,5 C 15,5 C 7,2 km/h (2 Bft)
05/05/2012 13:50 15,8 C 69 % 1004,1 hPa 0,0 mm 2,9 km/h (1 Bft) SO 225 2 min 0 W/m 10,1 C 15,8 C 4,3 km/h (1 Bft)
05/05/2012 14:00 15,6 C 65 % 1004,1 hPa 0,0 mm 8,6 km/h (2 Bft) O-SO 247 2 min 0 W/m 9,0 C 15,6 C 8,6 km/h (2 Bft)
05/05/2012 14:10 14,1 C 73 % 1004,8 hPa 0,3 mm 15,5 km/h (3 Bft) S-SO 202 2 min 0 W/m 9,3 C 14,1 C 18,7 km/h (3 Bft)
05/05/2012 14:20 12,3 C 81 % 1004,7 hPa 0,3 mm 9,0 km/h (2 Bft) SO 225 2 min 0 W/m 9,1 C 12,3 C 11,5 km/h (2 Bft)
05/05/2012 14:30 11,7 C 84 % 1004,7 hPa 0,1 mm 5,4 km/h (2 Bft) S-SO 202 2 min 0 W/m 9,1 C 11,7 C 7,6 km/h (2 Bft)
05/05/2012 14:40 11,3 C 86 % 1004,7 hPa 0,0 mm 3,6 km/h (1 Bft) SO 225 2 min 0 W/m 9,0 C 11,3 C 7,6 km/h (2 Bft)
05/05/2012 14:50 11,0 C 87 % 1004,8 hPa 0,1 mm 2,9 km/h (1 Bft) S-SO 202 2 min 0 W/m 8,9 C 11,0 C 4,0 km/h (1 Bft)
05/05/2012 15:00 10,9 C 88 % 1004,8 hPa 0,0 mm 6,8 km/h (2 Bft) S-SO 202 2 min 0 W/m 9,0 C 10,9 C 10,1 km/h (2 Bft)
05/05/2012 15:10 10,9 C 88 % 1004,8 hPa 0,0 mm 9,0 km/h (2 Bft) SO 225 2 min 0 W/m 9,0 C 10,9 C 9,0 km/h (2 Bft)
05/05/2012 15:20 11,2 C 88 % 1004,8 hPa 0,0 mm 4,3 km/h (1 Bft) SO 225 2 min 0 W/m 9,3 C 11,2 C 7,6 km/h (2 Bft)
05/05/2012 15:30 11,7 C 89 % 1004,9 hPa 0,0 mm 2,2 km/h (1 Bft) SO 225 2 min 0 W/m 9,9 C 11,7 C 2,2 km/h (1 Bft)
05/05/2012 15:40 11,9 C 87 % 1005,0 hPa 0,0 mm 3,6 km/h (1 Bft) SO 225 2 min 0 W/m 9,8 C 11,9 C 3,6 km/h (1 Bft)
05/05/2012 15:50 12,3 C 86 % 1005,1 hPa 0,0 mm 6,1 km/h (2 Bft) SO 225 2 min 0 W/m 10,0 C 12,3 C 9,4 km/h (2 Bft)
05/05/2012 16:00 12,4 C 85 % 1005,0 hPa 0,0 mm 3,2 km/h (1 Bft) S-SO 202 2 min 0 W/m 9,9 C 12,4 C 11,2 km/h (2 Bft)
05/05/2012 16:10 12,4 C 85 % 1005,1 hPa 0,0 mm 3,2 km/h (1 Bft) S-SO 202 2 min 0 W/m 9,9 C 12,4 C 11,2 km/h (2 Bft)
05/05/2012 16:20 12,4 C 85 % 1005,0 hPa 0,0 mm 3,2 km/h (1 Bft) N 360 2 min 0 W/m 9,9 C 12,4 C 3,2 km/h (1 Bft)
05/05/2012 16:30 12,4 C 85 % 1004,9 hPa 0,0 mm 3,2 km/h (1 Bft) N 360 2 min 0 W/m 9,9 C 12,4 C 3,2 km/h (1 Bft)
05/05/2012 16:40 12,4 C 85 % 1004,8 hPa 0,0 mm 3,2 km/h (1 Bft) N 360 2 min 0 W/m 9,9 C 12,4 C 3,2 km/h (1 Bft)
05/05/2012 16:50 12,4 C 85 % 1004,8 hPa 0,0 mm 3,2 km/h (1 Bft) N 360 2 min 0 W/m 9,9 C 12,4 C 3,2 km/h (1 Bft)
05/05/2012 17:00 14,3 C 85 % 1004,8 hPa 0,0 mm 0,7 km/h (0 Bft) O-SO 247 2 min 0 W/m 11,8 C 14,3 C 0,7 km/h (0 Bft)
05/05/2012 17:10 14,3 C 85 % 1004,9 hPa 0,0 mm 0,7 km/h (0 Bft) O-SO 247 2 min 0 W/m 11,8 C 14,3 C 0,7 km/h (0 Bft)
05/05/2012 17:20 13,8 C 79 % 1005,1 hPa 0,2 mm 1,1 km/h (1 Bft) O 270 2 min 0 W/m 10,2 C 13,8 C 4,3 km/h (1 Bft)
05/05/2012 17:30 13,4 C 82 % 1005,0 hPa 0,0 mm 2,9 km/h (1 Bft) O 270 2 min 0 W/m 10,4 C 13,4 C 6,1 km/h (2 Bft)
05/05/2012 17:40 13,4 C 82 % 1004,9 hPa 0,0 mm 2,9 km/h (1 Bft) SO 225 2 min 0 W/m 10,4 C 13,4 C 3,6 km/h (1 Bft)
05/05/2012 17:50 13,4 C 82 % 1005,0 hPa 0,0 mm 2,9 km/h (1 Bft) SO 225 2 min 0 W/m 10,4 C 13,4 C 3,6 km/h (1 Bft)
05/05/2012 18:00 13,8 C 81 % 1005,0 hPa 0,0 mm 6,8 km/h (2 Bft) NO 315 2 min 0 W/m 10,6 C 13,8 C 13,0 km/h (3 Bft)
05/05/2012 18:10 13,8 C 81 % 1005,1 hPa 0,2 mm 2,2 km/h (1 Bft) NO 315 2 min 0 W/m 10,6 C 13,8 C 7,6 km/h (2 Bft)
05/05/2012 18:20 13,2 C 81 % 1005,0 hPa 0,0 mm 0,7 km/h (0 Bft) O-NO 292 2 min 0 W/m 10,0 C 13,2 C 0,7 km/h (0 Bft)
05/05/2012 18:30 12,9 C 83 % 1005,1 hPa 0,0 mm 1,1 km/h (1 Bft) O 270 2 min 0 W/m 10,1 C 12,9 C 6,8 km/h (2 Bft)
05/05/2012 18:40 13,2 C 85 % 1005,1 hPa 0,1 mm 1,8 km/h (1 Bft) O 270 2 min 0 W/m 10,7 C 13,2 C 8,3 km/h (2 Bft)
05/05/2012 18:50 13,3 C 82 % 1005,2 hPa 0,0 mm 4,3 km/h (1 Bft) O 270 2 min 0 W/m 10,3 C 13,3 C 10,8 km/h (2 Bft)
05/05/2012 19:00 13,4 C 81 % 1005,2 hPa 0,0 mm 4,0 km/h (1 Bft) SO 225 2 min 0 W/m 10,2 C 13,4 C 4,7 km/h (1 Bft)
05/05/2012 19:10 13,3 C 81 % 1005,3 hPa 0,0 mm 2,5 km/h (1 Bft) O 270 2 min 0 W/m 10,1 C 13,3 C 4,3 km/h (1 Bft)
05/05/2012 19:20 13,3 C 81 % 1005,4 hPa 0,0 mm 5,4 km/h (2 Bft) O-SO 247 2 min 0 W/m 10,1 C 13,3 C 9,7 km/h (2 Bft)
05/05/2012 19:30 13,1 C 80 % 1005,7 hPa 0,0 mm 4,0 km/h (1 Bft) S 180 2 min 0 W/m 9,7 C 13,1 C 4,0 km/h (1 Bft)
05/05/2012 19:40 13,1 C 81 % 1005,7 hPa 0,0 mm 2,2 km/h (1 Bft) O 270 2 min 0 W/m 9,9 C 13,1 C 2,2 km/h (1 Bft)
05/05/2012 19:50 13,1 C 81 % 1005,7 hPa 0,0 mm 1,1 km/h (1 Bft) SO 225 2 min 0 W/m 9,9 C 13,1 C 2,9 km/h (1 Bft)
05/05/2012 20:00 12,9 C 81 % 1005,7 hPa 0,0 mm 2,5 km/h (1 Bft) O-SO 247 2 min 0 W/m 9,7 C 12,9 C 8,3 km/h (2 Bft)
05/05/2012 20:10 12,6 C 79 % 1005,7 hPa 0,0 mm 0,4 km/h (0 Bft) O-SO 247 2 min 0 W/m 9,1 C 12,6 C 3,2 km/h (1 Bft)
05/05/2012 20:20 12,2 C 81 % 1005,9 hPa 0,0 mm 0,7 km/h (0 Bft) S-SO 202 2 min 0 W/m 9,0 C 12,2 C 4,3 km/h (1 Bft)
05/05/2012 20:30 11,8 C 81 % 1005,8 hPa 0,0 mm 0,4 km/h (0 Bft) O-SO 247 2 min 0 W/m 8,6 C 11,8 C 3,6 km/h (1 Bft)
05/05/2012 20:40 11,4 C 81 % 1005,9 hPa 0,0 mm 0,4 km/h (0 Bft) O 270 2 min 0 W/m 8,3 C 11,4 C 0,4 km/h (0 Bft)
05/05/2012 20:50 11,0 C 82 % 1005,8 hPa 0,0 mm 0,0 km/h (0 Bft) O 270 2 min 0 W/m 8,0 C 11,0 C 0,0 km/h (0 Bft)
05/05/2012 21:00 10,6 C 83 % 1006,0 hPa 0,0 mm 0,0 km/h (0 Bft) O-SO 247 0 min 0 W/m 7,8 C 10,6 C 0,0 km/h (0 Bft)
05/05/2012 21:10 10,3 C 83 % 1006,0 hPa 0,0 mm 0,0 km/h (0 Bft) S 180 0 min 0 W/m 7,5 C 10,3 C 0,0 km/h (0 Bft)
05/05/2012 21:20 9,8 C 83 % 1006,1 hPa 0,0 mm 0,0 km/h (0 Bft) S 180 0 min 0 W/m 7,1 C 9,8 C 0,0 km/h (0 Bft)
05/05/2012 21:30 9,5 C 84 % 1006,1 hPa 0,0 mm 0,0 km/h (0 Bft) S 180 0 min 0 W/m 6,9 C 9,5 C 0,0 km/h (0 Bft)
05/05/2012 21:40 9,3 C 84 % 1006,1 hPa 0,0 mm 0,0 km/h (0 Bft) S 180 0 min 0 W/m 6,7 C 9,3 C 0,0 km/h (0 Bft)
05/05/2012 21:50 9,1 C 86 % 1006,2 hPa 0,0 mm 0,0 km/h (0 Bft) SO 225 0 min 0 W/m 6,9 C 9,1 C 0,0 km/h (0 Bft)
05/05/2012 22:00 8,9 C 87 % 1006,3 hPa 0,0 mm 0,0 km/h (0 Bft) S-SO 202 0 min 0 W/m 6,9 C 8,9 C 2,9 km/h (1 Bft)
05/05/2012 22:10 8,9 C 88 % 1006,4 hPa 0,0 mm 1,4 km/h (1 Bft) SO 225 0 min 0 W/m 7,0 C 8,9 C 4,3 km/h (1 Bft)
05/05/2012 22:20 8,9 C 89 % 1006,5 hPa 0,0 mm 0,7 km/h (0 Bft) S-SO 202 0 min 0 W/m 7,2 C 8,9 C 2,9 km/h (1 Bft)
05/05/2012 22:30 9,1 C 89 % 1006,5 hPa 0,0 mm 2,5 km/h (1 Bft) S-SO 202 0 min 0 W/m 7,4 C 9,1 C 4,3 km/h (1 Bft)
05/05/2012 22:40 9,1 C 89 % 1006,4 hPa 0,0 mm 0,0 km/h (0 Bft) S-SO 202 0 min 0 W/m 7,4 C 9,1 C 0,0 km/h (0 Bft)
05/05/2012 22:50 9,2 C 89 % 1006,4 hPa 0,0 mm 0,4 km/h (0 Bft) S-SO 202 0 min 0 W/m 7,5 C 9,2 C 0,4 km/h (0 Bft)
05/05/2012 23:00 9,3 C 90 % 1006,5 hPa 0,0 mm 0,7 km/h (0 Bft) S-SO 202 0 min 0 W/m 7,7 C 9,3 C 4,0 km/h (1 Bft)
05/05/2012 23:10 9,4 C 90 % 1006,5 hPa 0,0 mm 0,7 km/h (0 Bft) S-SO 202 0 min 0 W/m 7,8 C 9,4 C 4,3 km/h (1 Bft)
05/05/2012 23:20 9,5 C 90 % 1006,6 hPa 0,0 mm 0,0 km/h (0 Bft) SO 225 0 min 0 W/m 7,9 C 9,5 C 0,0 km/h (0 Bft)
05/05/2012 23:30 9,6 C 90 % 1006,6 hPa 0,0 mm 2,5 km/h (1 Bft) S-SO 202 0 min 0 W/m 8,0 C 9,6 C 2,9 km/h (1 Bft)
05/05/2012 23:40 9,8 C 90 % 1006,7 hPa 0,0 mm 2,2 km/h (1 Bft) S-SO 202 0 min 0 W/m 8,2 C 9,8 C 4,3 km/h (1 Bft)
05/05/2012 23:50 9,8 C 89 % 1006,7 hPa 0,0 mm 0,0 km/h (0 Bft) SO 225 0 min 0 W/m 8,1 C 9,8 C 0,0 km/h (0 Bft)
_ Min-Heure 05:50 14:00 06:20 - 23:50 - - - - 05:50 05:50 23:50
Minimum _ 7,6 C 65 % 1003,9 hPa - 0,0 km/h (0 Bft) - - - - 6,1 C 7,6 C 0,0 km/h (0 Bft)
_ Max-Heure 11:40 08:40 23:50 14:10 14:10 - - 20:50 23:50 17:10 11:40 14:10
Maximum _ 16,9 C 92 % 1006,7 hPa 0,3 mm 15,5 km/h
S-SO (3 Bft)
- - 2 min 0 W/m 11,8 C 16,9 C 18,7 km/h
S-SO (3 Bft)
Moyenne _ 11,4 C 85 % 1004,8 hPa #1,6 mm 2,7 km/h (1 Bft) S-SO - #2:50 h 0 W/m 8,8 C 11,4 C 4,9 km/h (1 Bft)
Saint Bonnet de Bellac- Haute Vienne - France